Location: Capannuccia
(43.7000°N, 11.3000°E)
Time: 09:26:49
(UTC+00:00)

STARLINK-2717 - Pass Details

Date: 30 July 2021
Orbit: 546 x 548 km, 53.1° (Epoch: 23 September)

Event Time Altitude Azimuth Distance (km) Brightness Sun altitude
Rises 20:16:43 0° 298° (WNW) 2,724 8.7 -15.0°
Reaches altitude 10° 20:19:08 10° 289° (WNW) 1,826 7.3 -15.3°
Maximum altitude 20:22:48 31° 226° (SW) 974 4.9 -15.8°
Enters shadow 20:24:42 21° 181° (S) 1,255 5.0 -16.0°
